When you browse on this site, cookies collect data to enhance your experience and personalize the content and advertising you see.
Visit our Privacy Policy to learn more. By continuing to use the site, you agree to this use of cookies and data.
  • Em Portugal
  • Lista de países
  • Para 7 dias
  • Temperatura da água
  • Mapas de satélite
  • Mapa do tempo
  • Widgets de tempo
  • user-avatar
    Iniciar Sessão

    Previsão horária em Wavre

    Hoje, 21 Maio, Terça-feira

    Tempo Temperatura Precipitação Vento Pressão Humidade
    00:00 +11°C° 0 mm 4 m/s 753 mmHg 92%
    01:00 +11°C° 0 mm 4 m/s 753 mmHg 92%
    02:00 +11°C° 0 mm 4 m/s 753 mmHg 92%
    03:00 +11°C° 0 mm 4 m/s 753 mmHg 92%
    04:00 +11°C° 0 mm 4 m/s 753 mmHg 92%
    05:00 +10°C° 0 mm 5 m/s 753 mmHg 91%
    06:00 +10°C° 0 mm 5 m/s 753 mmHg 90%
    07:00 +12°C° 0 mm 5 m/s 754 mmHg 87%
    08:00 +13°C° 0 mm 5 m/s 754 mmHg 83%
    09:00 +14°C° 0 mm 5 m/s 754 mmHg 79%
    10:00 +15°C° 0 mm 5 m/s 755 mmHg 75%
    11:00 +16°C° 0 mm 6 m/s 755 mmHg 71%
    12:00 +17°C° 0 mm 6 m/s 755 mmHg 67%
    13:00 +17°C° 0 mm 6 m/s 755 mmHg 67%
    14:00 +17°C° 0 mm 6 m/s 755 mmHg 68%
    15:00 +17°C° 0 mm 6 m/s 755 mmHg 68%
    16:00 +16°C° 0 mm 5 m/s 756 mmHg 71%
    17:00 +15°C° 0 mm 4 m/s 756 mmHg 74%
    18:00 +14°C° 0 mm 3 m/s 756 mmHg 76%
    19:00 +13°C° 0 mm 3 m/s 756 mmHg 79%
    20:00 +11°C° 0 mm 3 m/s 757 mmHg 83%
    21:00 +10°C° 0 mm 3 m/s 757 mmHg 86%
    22:00 +9°C° 0 mm 2 m/s 757 mmHg 88%
    23:00 +9°C° 0 mm 2 m/s 758 mmHg 90%

    Amanhã, 22 Maio, Quarta-feira

    Tempo Temperatura Precipitação Vento Pressão Humidade
    00:00 +8°C° 0 mm 2 m/s 758 mmHg 92%
    01:00 +8°C° 0 mm 2 m/s 758 mmHg 93%
    02:00 +7°C° 0 mm 2 m/s 758 mmHg 93%
    03:00 +7°C° 0 mm 2 m/s 758 mmHg 93%
    04:00 +8°C° 0 mm 2 m/s 758 mmHg 90%
    05:00 +9°C° 0 mm 2 m/s 759 mmHg 87%
    06:00 +11°C° 0 mm 1 m/s 759 mmHg 84%
    07:00 +13°C° 0 mm 2 m/s 759 mmHg 78%
    08:00 +15°C° 0 mm 2 m/s 759 mmHg 72%
    09:00 +17°C° 0 mm 2 m/s 759 mmHg 66%
    10:00 +18°C° 0.1 mm 2 m/s 759 mmHg 63%
    11:00 +19°C° 0.1 mm 2 m/s 759 mmHg 60%
    12:00 +19°C° 0.1 mm 2 m/s 759 mmHg 57%
    13:00 +20°C° 0.1 mm 2 m/s 759 mmHg 58%
    14:00 +20°C° 0.1 mm 2 m/s 759 mmHg 59%
    15:00 +20°C° 0.1 mm 2 m/s 759 mmHg 60%
    16:00 +19°C° 0 mm 2 m/s 759 mmHg 63%
    17:00 +18°C° 0 mm 2 m/s 758 mmHg 66%
    18:00 +17°C° 0 mm 2 m/s 758 mmHg 69%
    19:00 +15°C° 0 mm 2 m/s 759 mmHg 70%
    20:00 +14°C° 0 mm 1 m/s 759 mmHg 72%
    21:00 +12°C° 0 mm 1 m/s 759 mmHg 73%
    22:00 +11°C° 0 mm 1 m/s 759 mmHg 73%
    23:00 +11°C° 0 mm 1 m/s 759 mmHg 73%

    Depois de amanhã, 23 Maio, Quinta-feira

    Tempo Temperatura Precipitação Vento Pressão Humidade
    00:00 +10°C° 0 mm 1 m/s 759 mmHg 73%
    01:00 +10°C° 0 mm 1 m/s 759 mmHg 75%
    02:00 +10°C° 0 mm 1 m/s 759 mmHg 77%
    03:00 +9°C° 0 mm 2 m/s 759 mmHg 78%
    04:00 +10°C° 0 mm 2 m/s 759 mmHg 79%
    05:00 +12°C° 0 mm 2 m/s 759 mmHg 80%
    06:00 +14°C° 0 mm 2 m/s 759 mmHg 81%
    07:00 +15°C° 0 mm 2 m/s 758 mmHg 77%
    08:00 +17°C° 0 mm 2 m/s 758 mmHg 73%
    09:00 +19°C° 0 mm 2 m/s 758 mmHg 69%
    10:00 +19°C° 0 mm 2 m/s 758 mmHg 64%
    11:00 +20°C° 0 mm 3 m/s 758 mmHg 60%
    12:00 +21°C° 0 mm 3 m/s 758 mmHg 55%
    13:00 +21°C° 0.1 mm 3 m/s 758 mmHg 56%
    14:00 +21°C° 0.1 mm 3 m/s 757 mmHg 57%
    15:00 +21°C° 0.1 mm 2 m/s 757 mmHg 59%
    16:00 +21°C° 0.2 mm 2 m/s 757 mmHg 64%
    17:00 +20°C° 0.2 mm 2 m/s 757 mmHg 70%
    18:00 +20°C° 0.2 mm 1 m/s 756 mmHg 75%
    19:00 +19°C° 0.1 mm 1 m/s 757 mmHg 78%
    20:00 +16°C° 0.1 mm 1 m/s 757 mmHg 81%
    21:00 +14°C° 0.1 mm 1 m/s 757 mmHg 84%
    22:00 +14°C° 0 mm 1 m/s 757 mmHg 85%
    23:00 +13°C° 0 mm 1 m/s 756 mmHg 85%

    24 Maio, Sexta-feira

    Tempo Temperatura Precipitação Vento Pressão Humidade
    00:00 +12°C° 0 mm 0 m/s 756 mmHg 86%
    01:00 +12°C° 0 mm 1 m/s 756 mmHg 87%
    02:00 +12°C° 0 mm 1 m/s 756 mmHg 88%
    03:00 +12°C° 0 mm 1 m/s 755 mmHg 89%
    04:00 +13°C° 0.1 mm 1 m/s 755 mmHg 88%
    05:00 +13°C° 0.1 mm 1 m/s 755 mmHg 87%
    06:00 +14°C° 0.1 mm 1 m/s 755 mmHg 86%
    07:00 +15°C° 0 mm 2 m/s 755 mmHg 79%
    08:00 +17°C° 0 mm 3 m/s 755 mmHg 72%
    09:00 +18°C° 0 mm 3 m/s 754 mmHg 65%
    10:00 +18°C° 0 mm 4 m/s 754 mmHg 67%
    11:00 +17°C° 0 mm 4 m/s 754 mmHg 68%
    12:00 +17°C° 0 mm 4 m/s 754 mmHg 70%
    13:00 +15°C° 0.7 mm 4 m/s 754 mmHg 76%
    14:00 +14°C° 0.7 mm 3 m/s 753 mmHg 83%
    15:00 +13°C° 0.7 mm 3 m/s 753 mmHg 89%
    16:00 +13°C° 0.4 mm 3 m/s 753 mmHg 88%
    17:00 +14°C° 0.4 mm 2 m/s 753 mmHg 88%
    18:00 +14°C° 0.4 mm 2 m/s 753 mmHg 88%
    19:00 +13°C° 0.1 mm 2 m/s 753 mmHg 90%
    20:00 +12°C° 0.1 mm 2 m/s 754 mmHg 91%
    21:00 +12°C° 0.1 mm 2 m/s 754 mmHg 93%
    22:00 +10°C° 0 mm 2 m/s 754 mmHg 94%
    23:00 +10°C° 0 mm 2 m/s 754 mmHg 94%

    25 Maio, Sábado

    Tempo Temperatura Precipitação Vento Pressão Humidade
    00:00 +10°C° 0 mm 1 m/s 754 mmHg 95%
    01:00 +10°C° 0 mm 1 m/s 755 mmHg 95%
    02:00 +10°C° 0 mm 1 m/s 755 mmHg 96%
    03:00 +9°C° 0 mm 1 m/s 755 mmHg 96%
    04:00 +9°C° 0 mm 2 m/s 755 mmHg 95%
    05:00 +10°C° 0 mm 2 m/s 755 mmHg 94%
    06:00 +12°C° 0 mm 2 m/s 756 mmHg 93%
    07:00 +13°C° 0 mm 2 m/s 756 mmHg 87%
    08:00 +15°C° 0 mm 2 m/s 756 mmHg 82%
    09:00 +16°C° 0 mm 2 m/s 756 mmHg 77%
    10:00 +17°C° 0.1 mm 2 m/s 756 mmHg 73%
    11:00 +18°C° 0.1 mm 2 m/s 756 mmHg 70%
    12:00 +19°C° 0.1 mm 3 m/s 756 mmHg 66%
    13:00 +19°C° 0.2 mm 3 m/s 756 mmHg 67%
    14:00 +19°C° 0.2 mm 3 m/s 756 mmHg 67%
    15:00 +19°C° 0.2 mm 2 m/s 756 mmHg 68%
    16:00 +18°C° 0.3 mm 2 m/s 756 mmHg 72%
    17:00 +17°C° 0.3 mm 2 m/s 756 mmHg 77%
    18:00 +17°C° 0.3 mm 2 m/s 756 mmHg 81%
    19:00 +15°C° 0 mm 2 m/s 756 mmHg 84%
    20:00 +14°C° 0 mm 2 m/s 756 mmHg 87%
    21:00 +13°C° 0 mm 2 m/s 756 mmHg 89%
    22:00 +12°C° 0 mm 2 m/s 756 mmHg 91%
    23:00 +12°C° 0 mm 2 m/s 756 mmHg 92%

    26 Maio, Domingo

    Tempo Temperatura Precipitação Vento Pressão Humidade
    00:00 +11°C° 0 mm 1 m/s 756 mmHg 94%
    01:00 +10°C° 0 mm 2 m/s 756 mmHg 94%
    02:00 +10°C° 0 mm 2 m/s 756 mmHg 94%
    03:00 +9°C° 0 mm 2 m/s 756 mmHg 94%
    04:00 +10°C° 0 mm 2 m/s 756 mmHg 93%
    05:00 +12°C° 0 mm 2 m/s 756 mmHg 91%
    06:00 +12°C° 0 mm 3 m/s 756 mmHg 90%
    07:00 +13°C° 0 mm 3 m/s 756 mmHg 87%
    08:00 +14°C° 0 mm 3 m/s 756 mmHg 85%
    09:00 +17°C° 0 mm 3 m/s 756 mmHg 83%
    10:00 +17°C° 0 mm 3 m/s 756 mmHg 81%
    11:00 +18°C° 0 mm 3 m/s 756 mmHg 80%
    12:00 +18°C° 0 mm 3 m/s 756 mmHg 78%
    13:00 +19°C° 0 mm 3 m/s 756 mmHg 75%
    14:00 +20°C° 0 mm 4 m/s 755 mmHg 73%
    15:00 +21°C° 0 mm 4 m/s 755 mmHg 70%
    16:00 +20°C° 0.1 mm 4 m/s 755 mmHg 73%
    17:00 +20°C° 0.1 mm 3 m/s 755 mmHg 75%
    18:00 +20°C° 0.1 mm 3 m/s 755 mmHg 78%
    19:00 +18°C° 0 mm 3 m/s 755 mmHg 83%
    20:00 +17°C° 0 mm 4 m/s 755 mmHg 87%
    21:00 +15°C° 0 mm 4 m/s 755 mmHg 91%
    22:00 +14°C° 0 mm 4 m/s 755 mmHg 92%
    23:00 +14°C° 0 mm 4 m/s 755 mmHg 94%
    Mostrar mais